Regional Weather Roundup
Issued by NWS Little Rock, AR

Home | Current Version | Previous Version | Graphics & Text | Print | Product List | Glossary On
Versions: 1 2 3 4 5 6 7 8 9 10 11 12 13 14 15 16 17 18 19 20 21 22 23 24 25 26 27 28 29 30 31 32 33 34 35 36 37 38 39 40 41 42 43 44 45 46 47 48 49 50
688
ASUS44 KLZK 220505
RWRLZK

WEATHER ROUNDUP FOR ARKANSAS
NATIONAL WEATHER SERVICE LITTLE ROCK AR
1200 AM CDT SUN OCT 22 2017

NOTE: "FAIR" INDICATES FEW OR NO CLOUDS BELOW 12,000 FEET WITH NO
SIGNIFICANT WEATHER AND/OR OBSTRUCTIONS TO VISIBILITY.

ARZ001-003-010-029-220600-
NORTHWEST ARKANSAS

CITY           SKY/WX    TMP DP  RH WIND       PRES   REMARKS
FAYETTEVILLE   CLOUDY    73  68  84 S14G25    29.90R
FORT SMITH     CLOUDY    74  69  85 NE7       29.86F
HARRISON       MOCLDY    73  67  81 S17       29.91F
BENTONVILLE    CLOUDY    72  63  73 W24G37    29.94R
ROGERS         CLOUDY    72  64  78 N28G43    29.90S
SILOAM SPGS    HVY RAIN  59  55  88 N17G25    29.97R
HIGHFILL       RAIN      60  57  89 NW10G29   29.97R FOG
$$

ARZ004-005-016-220600-
NORTH CENTRAL ARKANSAS

CITY           SKY/WX    TMP DP  RH WIND       PRES   REMARKS
BATESVILLE     CLOUDY    74  66  76 SE9       29.98S
FLIPPIN        CLOUDY    74  66  76 VRB7      29.93F
MTN HOME       MOCLDY    73  67  81 S13       29.92F
$$

ARZ040-041-220600-
WEST CENTRAL ARKANSAS

CITY           SKY/WX    TMP DP  RH WIND       PRES   REMARKS
MENA           MOCLDY    77  75  94 SE8G17    29.92F
MOUNT IDA      MOCLDY    75  68  78 SE10G22   29.93
$$

ARZ009-017-025-026-028-220600-
NORTHEAST ARKANSAS

CITY           SKY/WX    TMP DP  RH WIND       PRES   REMARKS
CORNING        CLOUDY    73  66  78 SE14G23   30.00S
JONESBORO      CLOUDY    73  64  73 S15       29.99F
NEWPORT        CLOUDY    73  65  75 S20       29.99S
WALNUT RIDGE   PTCLDY    73  64  73 S17G24    29.98
BLYTHEVILLE    PTCLDY    71  63  75 S14       30.03F
$$

ARZ022-023-033-042-044-220600-
CENTRAL ARKANSAS

CITY           SKY/WX    TMP DP  RH WIND       PRES   REMARKS
LITTLE ROCK    MOCLDY    72  69  90 S8        29.98R
N LITTLE ROCK    N/A     73  68  84 S7        29.99R
JACKSONVILLE   MOCLDY    74  69  82 S7        29.98R
SEARCY         PTCLDY    73  69  87 S10       29.99
HOT SPRINGS    CLOUDY    75  71  87 SE9       29.98R
RUSSELLVILLE   MOCLDY    76  68  76 VRB7      29.93F
CLINTON        CLOUDY    73  68  83 SE3       29.97F
$$

ARZ036-220600-
EAST ARKANSAS

CITY           SKY/WX    TMP DP  RH WIND       PRES   REMARKS
WEST MEMPHIS   CLOUDY    72  64  76 SE18      30.01F
$$

ARZ050-053-066-070-073-220600-
SOUTHWEST ARKANSAS

CITY           SKY/WX    TMP DP  RH WIND       PRES   REMARKS
ARKADELPHIA    CLOUDY    74  70  87 S9        29.98R
CAMDEN         CLOUDY    73  68  83 S5        29.97F
TEXARKANA      CLOUDY    75  68  78 SE14      29.96R
EL DORADO      CLOUDY    73  72  96 SE12      29.99F
DE QUEEN       MOCLDY    76  72  87 SE6       29.90F
$$

ARZ056-057-069-220600-
SOUTHEAST ARKANSAS

CITY           SKY/WX    TMP DP  RH WIND       PRES   REMARKS
PINE BLUFF     CLOUDY    74  69  85 S21       29.98F
STUTTGART      PTCLDY    74  69  85 S15       29.99F
MONTICELLO     MOCLDY    73  70  90 S9        30.00F

$$






USA.gov is the U.S. government's official web portal to all federal, state and local government web resources and services.